UCT1920 VOMM-VABB

Flight info

Callsign UCT1920
Flight time 1h 24m
Altitude 34000
Route DOLKI2B DOLKI Q8 BEDOL MOLGO2A
Aircraft MD11/H-SDE1E2E3FGHIJ2J3J4J5M1RWXY/LB1D1

Departure

Time 2026-04-30 06:40
Airport Chennai International Airport (VOMM)

Arrival

Time 2026-04-30 08:05
Airport Chhatrapati Shivaji Maharaj International Airport (VABB)
Time Latitude Longitude Altitude Speed Heading
2026-04-30 06:14 12.99065 80.17731 54 ft 0 kts 135°
2026-04-30 06:30 12.99072 80.17724 54 ft 2 kts 135°
2026-04-30 06:31 12.99083 80.17713 54 ft 2 kts 135°
2026-04-30 06:31 12.99091 80.17705 53 ft 0 kts 135°
2026-04-30 06:31 12.99100 80.17696 53 ft 2 kts 125°
2026-04-30 06:31 12.99107 80.17682 53 ft 2 kts 111°
2026-04-30 06:32 12.99111 80.17667 52 ft 2 kts 99°
2026-04-30 06:32 12.99112 80.17652 52 ft 2 kts 86°
2026-04-30 06:32 12.99110 80.17638 52 ft 2 kts 73°
2026-04-30 06:32 12.99107 80.17629 52 ft 1 kts 66°
2026-04-30 06:33 12.99106 80.17627 52 ft 0 kts 67°
2026-04-30 06:36 12.99119 80.17659 52 ft 10 kts 68°
2026-04-30 06:36 12.99178 80.17692 51 ft 7 kts 14°
2026-04-30 06:36 12.99211 80.17733 51 ft 8 kts 64°
2026-04-30 06:37 12.99231 80.17786 51 ft 8 kts 70°
2026-04-30 06:37 12.99251 80.17840 52 ft 8 kts 69°
2026-04-30 06:37 12.99270 80.17891 53 ft 7 kts 69°
2026-04-30 06:37 12.99296 80.17960 54 ft 16 kts 69°
2026-04-30 06:38 12.99348 80.18092 53 ft 19 kts 68°
2026-04-30 06:38 12.99362 80.18206 53 ft 14 kts 88°
2026-04-30 06:38 12.99406 80.18298 54 ft 15 kts 50°
2026-04-30 06:38 12.99480 80.18372 55 ft 14 kts 42°
2026-04-30 06:39 12.99559 80.18425 55 ft 12 kts
2026-04-30 06:39 12.99579 80.18398 55 ft 5 kts 264°
2026-04-30 06:39 12.99565 80.18354 55 ft 7 kts 249°
2026-04-30 06:39 12.99477 80.18119 53 ft 70 kts 249°
2026-04-30 06:40 12.99212 80.17417 47 ft 136 kts 249°
2026-04-30 06:40 12.98806 80.16341 88 ft 179 kts 246°
2026-04-30 06:40 12.98355 80.15182 597 ft 176 kts 249°
2026-04-30 06:40 12.97950 80.13953 1004 ft 184 kts 259°
2026-04-30 06:41 12.97978 80.12659 1528 ft 190 kts 286°
2026-04-30 06:41 12.98655 80.11441 1795 ft 209 kts 314°
2026-04-30 06:41 12.99949 80.10661 2133 ft 224 kts 346°
2026-04-30 06:41 13.01581 80.10520 2341 ft 247 kts
2026-04-30 06:42 13.03306 80.10611 2916 ft 249 kts
2026-04-30 06:42 13.05088 80.10870 3200 ft 267 kts
2026-04-30 06:42 13.06979 80.11117 3623 ft 276 kts
2026-04-30 06:42 13.08908 80.11330 4184 ft 277 kts
2026-04-30 06:43 13.10809 80.11504 4759 ft 281 kts
2026-04-30 06:43 13.12777 80.11647 5295 ft 292 kts
2026-04-30 06:43 13.14821 80.11757 6313 ft 288 kts
2026-04-30 06:43 13.16758 80.11746 7358 ft 285 kts 355°
2026-04-30 06:44 13.18690 80.11292 8142 ft 290 kts 336°
2026-04-30 06:44 13.20346 80.10149 9133 ft 288 kts 319°
2026-04-30 06:44 13.21821 80.08695 9690 ft 304 kts 314°
2026-04-30 06:44 13.23192 80.06983 10280 ft 318 kts 307°
2026-04-30 06:45 13.24514 80.05042 10371 ft 348 kts 307°
2026-04-30 06:45 13.25954 80.02930 10648 ft 370 kts 306°
2026-04-30 06:45 13.27475 80.00778 11202 ft 382 kts 308°
2026-04-30 06:45 13.29103 79.98565 11852 ft 393 kts 308°
2026-04-30 06:46 13.30759 79.96320 12604 ft 401 kts 308°
2026-04-30 06:46 13.32453 79.94012 13391 ft 407 kts 308°
2026-04-30 06:46 13.34154 79.91701 14190 ft 411 kts 308°
2026-04-30 06:46 13.35899 79.89330 14973 ft 415 kts 308°
2026-04-30 06:47 13.37628 79.86977 15743 ft 419 kts 307°
2026-04-30 06:47 13.39389 79.84580 16495 ft 423 kts 307°
2026-04-30 06:47 13.41159 79.82172 17205 ft 428 kts 307°
2026-04-30 06:47 13.42958 79.79726 17932 ft 431 kts 306°
2026-04-30 06:48 13.44780 79.77248 18687 ft 433 kts 306°
2026-04-30 06:48 13.46600 79.74772 19372 ft 437 kts 306°
2026-04-30 06:48 13.48428 79.72285 20050 ft 439 kts 306°
2026-04-30 06:48 13.50271 79.69779 20731 ft 442 kts 306°
2026-04-30 06:49 13.52119 79.67268 21391 ft 444 kts 305°
2026-04-30 06:49 13.53981 79.64734 22024 ft 447 kts 305°
2026-04-30 06:49 13.55855 79.62190 22671 ft 449 kts 305°
2026-04-30 06:49 13.57740 79.59621 23217 ft 453 kts 305°
2026-04-30 06:50 13.59649 79.57026 23777 ft 457 kts 305°
2026-04-30 06:50 13.61578 79.54406 24310 ft 460 kts 305°
2026-04-30 06:50 13.63507 79.51783 24816 ft 464 kts 305°
2026-04-30 06:50 13.65462 79.49127 25300 ft 467 kts 305°
2026-04-30 06:51 13.67419 79.46468 25780 ft 470 kts 305°
2026-04-30 06:51 13.69396 79.43780 26303 ft 472 kts 305°
2026-04-30 06:51 13.71383 79.41084 26827 ft 474 kts 305°
2026-04-30 06:51 13.73350 79.38399 27261 ft 477 kts 305°
2026-04-30 06:52 13.75360 79.35635 27676 ft 480 kts 305°
2026-04-30 06:52 13.77349 79.32899 28111 ft 483 kts 305°
2026-04-30 06:52 13.79385 79.30099 28560 ft 485 kts 305°
2026-04-30 06:52 13.81375 79.27367 29261 ft 482 kts 305°
2026-04-30 06:53 13.83396 79.24592 29916 ft 480 kts 305°
2026-04-30 06:53 13.85393 79.21850 30560 ft 477 kts 306°
2026-04-30 06:53 13.87351 79.19162 31190 ft 474 kts 306°
2026-04-30 06:53 13.89318 79.16464 31738 ft 473 kts 306°
2026-04-30 06:54 13.91303 79.13743 32351 ft 470 kts 306°
2026-04-30 06:54 13.93255 79.11067 32873 ft 469 kts 306°
2026-04-30 06:54 13.95205 79.08392 33403 ft 467 kts 306°
2026-04-30 06:54 13.97148 79.05726 33802 ft 469 kts 307°
2026-04-30 06:55 13.99102 79.03046 33819 ft 469 kts 307°
2026-04-30 06:55 14.03067 78.97615 33832 ft 467 kts 307°
2026-04-30 06:56 14.06971 78.92269 33849 ft 466 kts 307°
2026-04-30 06:56 14.10886 78.86908 33852 ft 465 kts 307°
2026-04-30 06:57 14.14799 78.81554 33868 ft 465 kts 307°
2026-04-30 06:57 14.18675 78.76243 33892 ft 465 kts 307°
2026-04-30 06:58 14.22600 78.70865 33887 ft 466 kts 307°
2026-04-30 06:58 14.26461 78.65512 33891 ft 466 kts 307°
2026-04-30 06:59 14.30353 78.60117 33866 ft 466 kts 307°
2026-04-30 06:59 14.34224 78.54758 33868 ft 465 kts 307°
2026-04-30 07:00 14.38077 78.49428 33863 ft 465 kts 307°
2026-04-30 07:00 14.41977 78.44032 33874 ft 466 kts 307°
2026-04-30 07:01 14.45831 78.38705 33878 ft 466 kts 307°
2026-04-30 07:01 14.49735 78.33307 33872 ft 466 kts 307°
2026-04-30 07:02 14.53646 78.27903 33865 ft 467 kts 307°
2026-04-30 07:02 14.57532 78.22535 33862 ft 467 kts 307°
2026-04-30 07:03 14.61450 78.17126 33862 ft 467 kts 307°
2026-04-30 07:03 14.65363 78.11723 33871 ft 466 kts 307°
2026-04-30 07:04 14.69258 78.06346 33871 ft 467 kts 308°
2026-04-30 07:04 14.73143 78.00966 33859 ft 468 kts 307°
2026-04-30 07:05 14.78952 77.92840 33864 ft 467 kts 307°
2026-04-30 07:05 14.82818 77.87440 33867 ft 468 kts 308°
2026-04-30 07:06 14.86691 77.82034 33864 ft 468 kts 308°
2026-04-30 07:06 14.90604 77.76575 33867 ft 468 kts 308°
2026-04-30 07:07 14.94474 77.71175 33873 ft 468 kts 308°
2026-04-30 07:07 14.98391 77.65710 33867 ft 468 kts 308°
2026-04-30 07:08 15.02294 77.60273 33873 ft 468 kts 308°
2026-04-30 07:08 15.06180 77.54858 33878 ft 468 kts 308°
2026-04-30 07:09 15.10067 77.49442 33881 ft 468 kts 308°
2026-04-30 07:09 15.13989 77.43980 33900 ft 469 kts 308°
2026-04-30 07:10 15.17876 77.38569 33900 ft 469 kts 308°
2026-04-30 07:10 15.21805 77.33096 33898 ft 468 kts 308°
2026-04-30 07:11 15.25676 77.27657 33899 ft 468 kts 308°
2026-04-30 07:11 15.29525 77.22253 33904 ft 468 kts 308°
2026-04-30 07:12 15.33416 77.16791 33903 ft 468 kts 308°
2026-04-30 07:12 15.37291 77.11354 33911 ft 468 kts 308°
2026-04-30 07:13 15.41158 77.05935 33903 ft 467 kts 309°
2026-04-30 07:13 15.45184 77.00607 33907 ft 468 kts 310°
2026-04-30 07:14 15.49230 76.95290 33903 ft 468 kts 310°
2026-04-30 07:14 15.53267 76.89954 33898 ft 468 kts 310°
2026-04-30 07:15 15.57297 76.84620 33894 ft 468 kts 310°
2026-04-30 07:15 15.61297 76.79331 33894 ft 467 kts 310°
2026-04-30 07:16 15.65338 76.73990 33894 ft 467 kts 310°
2026-04-30 07:16 15.69358 76.68677 33900 ft 467 kts 310°
2026-04-30 07:17 15.73362 76.63343 33905 ft 468 kts 310°
2026-04-30 07:18 15.79351 76.55345 33913 ft 468 kts 310°
2026-04-30 07:18 15.83364 76.49995 33924 ft 467 kts 310°
2026-04-30 07:19 15.87378 76.44642 33930 ft 468 kts 310°
2026-04-30 07:19 15.91375 76.39317 33940 ft 467 kts 310°
2026-04-30 07:20 15.95390 76.33968 33945 ft 467 kts 310°
2026-04-30 07:20 15.99356 76.28684 33948 ft 467 kts 310°
2026-04-30 07:21 16.03373 76.23338 33952 ft 468 kts 310°
2026-04-30 07:21 16.07383 76.17999 33951 ft 468 kts 310°
2026-04-30 07:22 16.13394 76.10004 33957 ft 468 kts 310°
2026-04-30 07:22 16.17417 76.04653 33951 ft 468 kts 310°
2026-04-30 07:23 16.21415 75.99337 33943 ft 467 kts 310°
2026-04-30 07:23 16.25375 75.94005 33938 ft 467 kts 310°
2026-04-30 07:24 16.29359 75.88641 33942 ft 467 kts 310°
2026-04-30 07:24 16.33358 75.83263 33947 ft 467 kts 310°
2026-04-30 07:25 16.37328 75.77927 33951 ft 468 kts 310°
2026-04-30 07:25 16.41337 75.72543 33961 ft 468 kts 310°
2026-04-30 07:26 16.45312 75.67205 33959 ft 468 kts 310°
2026-04-30 07:26 16.49306 75.61842 33958 ft 467 kts 310°
2026-04-30 07:27 16.53303 75.56476 33957 ft 467 kts 310°
2026-04-30 07:27 16.57289 75.51131 33961 ft 467 kts 310°
2026-04-30 07:28 16.61265 75.45798 33968 ft 467 kts 310°
2026-04-30 07:28 16.65321 75.40405 33964 ft 467 kts 310°
2026-04-30 07:29 16.69328 75.35085 33963 ft 466 kts 310°
2026-04-30 07:29 16.73338 75.29758 33965 ft 467 kts 310°
2026-04-30 07:30 16.79353 75.21770 33962 ft 466 kts 310°
2026-04-30 07:31 16.83377 75.16428 33962 ft 467 kts 310°
2026-04-30 07:31 16.87401 75.11089 33966 ft 467 kts 310°
2026-04-30 07:32 16.91424 75.05752 33977 ft 467 kts 310°
2026-04-30 07:32 16.95477 75.00378 33979 ft 467 kts 310°
2026-04-30 07:33 16.99486 74.95063 33982 ft 466 kts 310°
2026-04-30 07:33 17.03509 74.89732 33993 ft 466 kts 310°
2026-04-30 07:34 17.07538 74.84396 33997 ft 466 kts 310°
2026-04-30 07:34 17.11572 74.79053 34004 ft 467 kts 310°
2026-04-30 07:35 17.15569 74.73719 34012 ft 467 kts 310°
2026-04-30 07:35 17.19572 74.68352 34011 ft 467 kts 310°
2026-04-30 07:36 17.23600 74.62956 34007 ft 467 kts 310°
2026-04-30 07:36 17.27591 74.57619 34001 ft 467 kts 310°
2026-04-30 07:37 17.31588 74.52272 33993 ft 467 kts 310°
2026-04-30 07:37 17.35607 74.46899 33988 ft 466 kts 310°
2026-04-30 07:38 17.39624 74.41529 33990 ft 466 kts 310°
2026-04-30 07:38 17.43648 74.36155 34001 ft 467 kts 310°
2026-04-30 07:39 17.47677 74.30749 34007 ft 467 kts 310°
2026-04-30 07:39 17.51712 74.25331 34011 ft 467 kts 310°
2026-04-30 07:40 17.55688 74.19993 34011 ft 466 kts 310°
2026-04-30 07:40 17.59700 74.14613 34014 ft 466 kts 310°
2026-04-30 07:41 17.63697 74.09252 34017 ft 467 kts 310°
2026-04-30 07:41 17.67729 74.03848 34017 ft 467 kts 310°
2026-04-30 07:42 17.71755 73.98452 34015 ft 467 kts 310°
2026-04-30 07:42 17.75756 73.93094 33331 ft 470 kts 310°
2026-04-30 07:42 17.77772 73.90379 32550 ft 469 kts 310°
2026-04-30 07:43 17.79765 73.87670 31869 ft 469 kts 310°
2026-04-30 07:43 17.81736 73.84995 31180 ft 471 kts 309°
2026-04-30 07:43 17.83754 73.82257 30463 ft 473 kts 309°
2026-04-30 07:43 17.85759 73.79539 29729 ft 475 kts 309°
2026-04-30 07:44 17.87783 73.76794 28978 ft 477 kts 309°
2026-04-30 07:44 17.89816 73.74036 28249 ft 480 kts 309°
2026-04-30 07:44 17.91840 73.71295 27590 ft 482 kts 309°
2026-04-30 07:44 17.93910 73.68488 26892 ft 482 kts 309°
2026-04-30 07:45 17.95950 73.65726 25981 ft 484 kts 309°
2026-04-30 07:45 17.97994 73.62957 25160 ft 484 kts 309°
2026-04-30 07:45 18.00033 73.60196 24576 ft 476 kts 309°
2026-04-30 07:45 18.02063 73.57446 23882 ft 470 kts 309°
2026-04-30 07:46 18.04027 73.54787 23224 ft 464 kts 309°
2026-04-30 07:46 18.05992 73.52128 22431 ft 459 kts 309°
2026-04-30 07:46 18.07932 73.49502 21656 ft 450 kts 309°
2026-04-30 07:46 18.09821 73.46946 21030 ft 439 kts 309°
2026-04-30 07:47 18.11651 73.44469 20804 ft 411 kts 309°
2026-04-30 07:47 18.13337 73.42184 20761 ft 387 kts 309°
2026-04-30 07:47 18.15007 73.40015 20614 ft 373 kts 315°
2026-04-30 07:47 18.16920 73.38267 20483 ft 362 kts 326°
2026-04-30 07:48 18.19115 73.36971 19942 ft 358 kts 337°
2026-04-30 07:48 18.21422 73.35992 19430 ft 352 kts 339°
2026-04-30 07:48 18.23660 73.35053 18889 ft 345 kts 338°
2026-04-30 07:48 18.25840 73.34107 18439 ft 333 kts 337°
2026-04-30 07:49 18.27947 73.33178 18164 ft 325 kts 337°
2026-04-30 07:49 18.30031 73.32250 17849 ft 323 kts 337°
2026-04-30 07:49 18.32099 73.31325 17448 ft 320 kts 336°
2026-04-30 07:49 18.34143 73.30410 17024 ft 318 kts 336°
2026-04-30 07:50 18.36168 73.29503 16581 ft 317 kts 336°
2026-04-30 07:50 18.38206 73.28590 16133 ft 316 kts 336°
2026-04-30 07:50 18.40219 73.27688 15643 ft 314 kts 336°
2026-04-30 07:50 18.42229 73.26788 15177 ft 312 kts 336°
2026-04-30 07:51 18.44218 73.25897 14669 ft 311 kts 336°
2026-04-30 07:51 18.46194 73.25012 14206 ft 309 kts 336°
2026-04-30 07:51 18.48166 73.24128 13729 ft 307 kts 336°
2026-04-30 07:51 18.50131 73.23247 13279 ft 305 kts 336°
2026-04-30 07:52 18.52095 73.22369 12787 ft 304 kts 336°
2026-04-30 07:52 18.54035 73.21501 12279 ft 303 kts 336°
2026-04-30 07:52 18.55954 73.20644 11813 ft 302 kts 335°
2026-04-30 07:52 18.57878 73.19782 11395 ft 300 kts 335°
2026-04-30 07:53 18.59807 73.18920 10915 ft 299 kts 335°
2026-04-30 07:53 18.61728 73.18059 10446 ft 297 kts 335°
2026-04-30 07:53 18.63628 73.17207 10018 ft 295 kts 334°
2026-04-30 07:53 18.65490 73.16390 9615 ft 293 kts 337°
2026-04-30 07:54 18.67452 73.15826 9401 ft 285 kts 349°
2026-04-30 07:54 18.69402 73.15682 9078 ft 279 kts 357°
2026-04-30 07:54 18.71328 73.15683 8802 ft 273 kts 357°
2026-04-30 07:54 18.73229 73.15672 8559 ft 270 kts 356°
2026-04-30 07:55 18.75100 73.15641 8291 ft 268 kts 356°
2026-04-30 07:55 18.76971 73.15599 7991 ft 267 kts 355°
2026-04-30 07:55 18.78827 73.15556 7709 ft 265 kts 355°
2026-04-30 07:55 18.80630 73.15509 7399 ft 256 kts 355°
2026-04-30 07:56 18.82399 73.15464 7172 ft 246 kts 355°
2026-04-30 07:56 18.84091 73.15417 7029 ft 244 kts 355°
2026-04-30 07:56 18.85812 73.15371 6791 ft 245 kts 355°
2026-04-30 07:56 18.87503 73.15324 6517 ft 243 kts 355°
2026-04-30 07:57 18.89186 73.15281 6264 ft 241 kts 355°
2026-04-30 07:57 18.90866 73.15238 6070 ft 238 kts 354°
2026-04-30 07:57 18.92532 73.15114 5949 ft 239 kts 346°
2026-04-30 07:57 18.94094 73.14609 5682 ft 232 kts 332°
2026-04-30 07:58 18.95512 73.13868 5353 ft 222 kts 329°
2026-04-30 07:58 18.96871 73.13126 5135 ft 212 kts 329°
2026-04-30 07:58 18.98157 73.12445 5023 ft 204 kts 330°
2026-04-30 07:58 18.99433 73.11782 4928 ft 204 kts 330°
2026-04-30 07:59 19.00719 73.11123 4743 ft 205 kts 330°
2026-04-30 07:59 19.02004 73.10468 4513 ft 204 kts 331°
2026-04-30 07:59 19.03291 73.09814 4276 ft 203 kts 331°
2026-04-30 08:00 19.05822 73.08533 3799 ft 200 kts 332°
2026-04-30 08:00 19.07068 73.07903 3586 ft 191 kts 332°
2026-04-30 08:00 19.08227 73.07306 3482 ft 180 kts 326°
2026-04-30 08:00 19.08991 73.06342 3404 ft 172 kts 284°
2026-04-30 08:01 19.09122 73.05088 3075 ft 172 kts 270°
2026-04-30 08:01 19.09105 73.03861 2840 ft 165 kts 270°
2026-04-30 08:01 19.09091 73.02638 2653 ft 168 kts 270°
2026-04-30 08:01 19.09079 73.01414 2409 ft 165 kts 270°
2026-04-30 08:02 19.09048 72.98987 2002 ft 163 kts 269°
2026-04-30 08:02 19.09031 72.97781 1807 ft 165 kts 269°
2026-04-30 08:03 19.08997 72.95375 1401 ft 164 kts 269°
2026-04-30 08:03 19.08968 72.92958 963 ft 162 kts 269°
2026-04-30 08:03 19.08962 72.91790 768 ft 160 kts 268°
2026-04-30 08:04 19.08933 72.90609 542 ft 158 kts 267°
2026-04-30 08:04 19.08907 72.89465 339 ft 156 kts 268°
2026-04-30 08:04 19.08892 72.88327 158 ft 153 kts 268°
2026-04-30 08:04 19.08877 72.87234 28 ft 131 kts 269°
2026-04-30 08:05 19.08867 72.86513 35 ft 68 kts 269°
2026-04-30 08:05 19.08861 72.86132 33 ft 33 kts 270°
2026-04-30 08:05 19.08882 72.85966 30 ft 20 kts 296°
2026-04-30 08:05 19.08933 72.85867 30 ft 1 kts 302°
2026-04-30 08:06 19.08937 72.85861 30 ft 3 kts 302°
2026-04-30 08:06 19.08968 72.85829 30 ft 7 kts 338°
2026-04-30 08:06 19.09013 72.85839 30 ft 6 kts 47°
2026-04-30 08:06 19.09029 72.85877 31 ft 6 kts 76°
2026-04-30 08:07 19.09033 72.85970 33 ft 15 kts 89°
2026-04-30 08:07 19.09034 72.86090 33 ft 17 kts 89°
2026-04-30 08:07 19.09035 72.86217 33 ft 17 kts 90°
2026-04-30 08:07 19.09055 72.86334 34 ft 16 kts 50°
2026-04-30 08:08 19.09128 72.86418 34 ft 15 kts 49°
2026-04-30 08:08 19.09199 72.86505 34 ft 15 kts 48°
2026-04-30 08:08 19.09265 72.86581 35 ft 13 kts 48°
2026-04-30 08:08 19.09326 72.86652 36 ft 12 kts 48°
2026-04-30 08:09 19.09380 72.86717 37 ft 10 kts 49°
2026-04-30 08:09 19.09419 72.86746 38 ft 5 kts 350°
2026-04-30 08:09 19.09447 72.86729 38 ft 3 kts 321°
2026-04-30 08:09 19.09459 72.86719 38 ft 0 kts 321°